| time (UTC) | temp F | wind direction | speed MPH | gust MPH | rain 1hr in | rain 24hr in | rain mn in | humidity % | barometer mb |
| 20260903053105 | 77 | 0 | 0.0 | 0.0 | 0.00 | 2.23 | 0.00 | 99 | 1014.4 |
| 20260903051602 | 77 | 0 | 0.0 | 0.0 | 0.00 | 2.23 | 0.00 | 99 | 1014.6 |
| 20260903050127 | 77 | 0 | 0.0 | 0.0 | 0.00 | 2.23 | 0.00 | 99 | 1014.6 |
| 20260903044559 | 77 | 0 | 0.0 | 0.0 | 0.00 | 2.24 | 0.00 | 99 | 1014.9 |
| 20260903043103 | 77 | 0 | 0.0 | 0.0 | 0.00 | 2.24 | 0.00 | 99 | 1015.0 |
| 20260903041602 | 77 | 0 | 0.0 | 0.0 | 0.00 | 2.24 | 0.00 | 99 | 1015.2 |
| 20260903040109 | 77 | 0 | 0.0 | 0.0 | 0.00 | 2.24 | 0.00 | 99 | 1015.1 |
| 20260903034603 | 77 | 0 | 0.0 | 0.0 | 0.00 | 2.24 | 2.24 | 99 | 1015.1 |
| 20260903033101 | 77 | 0 | 0.0 | 0.0 | 0.00 | 2.24 | 2.24 | 99 | 1015.1 |
| 20260903031605 | 77 | 0 | 0.0 | 0.0 | 0.00 | 2.24 | 2.24 | 99 | 1015.4 |
| 20260903030105 | 77 | 0 | 0.0 | 0.0 | 0.00 | 2.24 | 2.24 | 99 | 1015.3 |
| 20260903024608 | 77 | 0 | 0.0 | 0.0 | 0.00 | 2.24 | 2.24 | 99 | 1015.5 |
| 20260903023101 | 77 | 0 | 0.0 | 0.0 | 0.00 | 2.24 | 2.24 | 99 | 1015.3 |
| 20260903021612 | 77 | 0 | 0.0 | 0.0 | 0.00 | 2.24 | 2.24 | 99 | 1015.4 |
| 20260903014603 | 77 | 0 | 0.0 | 0.0 | 0.00 | 2.28 | 2.24 | 99 | 1015.1 |
| 20260903013102 | 77 | 0 | 0.0 | 3.0 | 0.00 | 2.28 | 2.24 | 98 | 1014.9 |
| 20260903011610 | 77 | 0 | 0.0 | 4.0 | 0.00 | 2.28 | 2.24 | 98 | 1014.8 |
| 20260903010103 | 77 | 51 | 2.0 | 7.0 | 0.00 | 2.28 | 2.24 | 98 | 1014.5 |
| 20260903004606 | 77 | 50 | 2.0 | 7.0 | 0.00 | 2.28 | 2.24 | 98 | 1014.2 |
| 20260903003102 | 78 | 49 | 0.0 | 6.0 | 0.00 | 2.28 | 2.24 | 98 | 1014.2 |
| 20260903001604 | 78 | 41 | 4.0 | 10.0 | 0.00 | 2.28 | 2.24 | 99 | 1014.5 |
| 20260903000107 | 79 | 0 | 1.0 | 3.0 | 0.00 | 2.28 | 2.24 | 99 | 1014.5 |
| 20260902234604 | 79 | 0 | 0.0 | 0.0 | 0.00 | 2.28 | 2.24 | 99 | 1014.3 |
| 20260902233103 | 78 | 0 | 0.0 | 0.0 | 0.00 | 2.28 | 2.24 | 99 | 1014.2 |
| 20260902231607 | 78 | 0 | 0.0 | 1.0 | 0.00 | 2.28 | 2.24 | 99 | 1014.0 |
| 20260902224603 | 78 | 0 | 0.0 | 2.0 | 0.01 | 2.28 | 2.24 | 99 | 1014.0 |
| 20260902223107 | 78 | 0 | 0.0 | 0.0 | 0.02 | 2.28 | 2.24 | 99 | 1014.0 |
| 20260902221600 | 77 | 0 | 0.0 | 0.0 | 0.06 | 2.28 | 2.24 | 99 | 1014.1 |
| 20260902220107 | 76 | 0 | 0.0 | 0.0 | 0.12 | 2.28 | 2.24 | 99 | 1013.8 |
| 20260902214606 | 75 | 0 | 0.0 | 0.0 | 0.15 | 2.28 | 2.23 | 98 | 1013.5 |
| 20260902213105 | 75 | 0 | 0.0 | 0.0 | 0.18 | 2.27 | 2.22 | 98 | 1013.7 |
| 20260902211608 | 76 | 0 | 0.0 | 4.0 | 0.42 | 2.23 | 2.18 | 98 | 1014.1 |
| 20260902204604 | 76 | 81 | 2.0 | 6.0 | 1.81 | 2.14 | 2.08 | 98 | 1014.2 |
| 20260902203101 | 76 | 23 | 0.0 | 6.0 | 2.03 | 2.09 | 2.04 | 97 | 1014.3 |
| 20260902201607 | 77 | 8 | 1.0 | 11.0 | 1.74 | 1.81 | 1.75 | 97 | 1014.4 |
| 20260902200113 | 79 | 29 | 8.0 | 14.0 | 0.72 | 0.79 | 0.73 | 94 | 1014.3 |
| 20260902194604 | 81 | 100 | 4.0 | 12.0 | 0.26 | 0.34 | 0.27 | 92 | 1014.0 |
| 20260902193101 | 86 | 104 | 3.0 | 11.0 | 0.00 | 0.08 | 0.01 | 84 | 1013.9 |
| 20260902191602 | 90 | 0 | 5.0 | 11.0 | 0.00 | 0.08 | 0.01 | 74 | 1014.2 |
| 20260902184602 | 90 | 1 | 6.0 | 12.0 | 0.00 | 0.08 | 0.01 | 74 | 1014.2 |
| 20260902183109 | 91 | 320 | 6.0 | 12.0 | 0.00 | 0.08 | 0.01 | 72 | 1014.6 |
| 20260902181602 | 91 | 41 | 3.0 | 11.0 | 0.00 | 0.08 | 0.01 | 72 | 1014.5 |
| 20260902180131 | 91 | 9 | 2.0 | 7.0 | 0.00 | 0.08 | 0.01 | 70 | 1014.8 |
| 20260902174604 | 91 | 25 | 3.0 | 10.0 | 0.00 | 0.08 | 0.01 | 73 | 1014.8 |
| 20260902173101 | 90 | 49 | 4.0 | 10.0 | 0.00 | 0.08 | 0.01 | 74 | 1015.0 |
| 20260902171606 | 90 | 42 | 3.0 | 8.0 | 0.00 | 0.08 | 0.01 | 73 | 1015.3 |
| 20260902170104 | 91 | 19 | 2.0 | 10.0 | 0.00 | 0.08 | 0.01 | 73 | 1015.5 |
| 20260902164603 | 90 | 0 | 1.0 | 11.0 | 0.00 | 0.47 | 0.01 | 72 | 1015.6 |
| 20260902163105 | 89 | 141 | 0.0 | 9.0 | 0.00 | 0.47 | 0.01 | 75 | 1015.8 |
| 20260902161606 | 87 | 49 | 4.0 | 9.0 | 0.00 | 0.47 | 0.01 | 76 | 1016.0 |
| 20260902160108 | 86 | 27 | 1.0 | 8.0 | 0.00 | 0.47 | 0.01 | 79 | 1016.0 |
| 20260902154600 | 87 | 41 | 0.0 | 8.0 | 0.00 | 0.54 | 0.01 | 81 | 1016.3 |
| 20260902153102 | 86 | 25 | 2.0 | 9.0 | 0.00 | 0.54 | 0.01 | 81 | 1016.4 |
| 20260902151601 | 86 | 327 | 0.0 | 7.0 | 0.00 | 0.54 | 0.01 | 85 | 1016.6 |
| 20260902144604 | 85 | 26 | 1.0 | 8.0 | 0.00 | 0.56 | 0.01 | 86 | 1016.5 |
| 20260902143108 | 84 | 44 | 1.0 | 7.0 | 0.00 | 0.56 | 0.01 | 87 | 1016.4 |
| 20260902141558 | 82 | 48 | 2.0 | 10.0 | 0.00 | 0.56 | 0.01 | 92 | 1016.5 |
| 20260902134607 | 83 | 40 | 5.0 | 9.0 | 0.00 | 0.56 | 0.01 | 89 | 1016.4 |
| 20260902133105 | 82 | 58 | 1.0 | 5.0 | 0.00 | 0.56 | 0.01 | 91 | 1016.3 |
| 20260902131602 | 82 | 53 | 3.0 | 8.0 | 0.00 | 0.56 | 0.01 | 93 | 1016.3 |
| 20260902130105 | 81 | 22 | 2.0 | 7.0 | 0.00 | 0.56 | 0.01 | 96 | 1016.3 |
| 20260902124608 | 79 | 5 | 4.0 | 6.0 | 0.00 | 0.56 | 0.01 | 97 | 1016.3 |
| 20260902123104 | 79 | 0 | 1.0 | 6.0 | 0.00 | 0.56 | 0.01 | 98 | 1016.4 |
| 20260902121613 | 78 | 26 | 0.0 | 5.0 | 0.00 | 0.56 | 0.01 | 98 | 1016.3 |
| 20260902114601 | 77 | 0 | 0.0 | 2.0 | 0.00 | 0.56 | 0.01 | 98 | 1016.2 |
| 20260902113111 | 77 | 6 | 0.0 | 4.0 | 0.00 | 0.56 | 0.01 | 98 | 1016.2 |
| 20260902111604 | 77 | 0 | 0.0 | 3.0 | 0.00 | 0.56 | 0.01 | 98 | 1015.8 |
| 20260902110111 | 76 | 20 | 0.0 | 1.0 | 0.00 | 0.56 | 0.01 | 98 | 1015.8 |
| 20260902104601 | 76 | 11 | 0.0 | 3.0 | 0.00 | 0.56 | 0.01 | 98 | 1015.6 |
| 20260902103103 | 76 | 0 | 0.0 | 3.0 | 0.00 | 0.56 | 0.01 | 98 | 1015.5 |
| 20260902101607 | 76 | 0 | 0.0 | 3.0 | 0.00 | 0.56 | 0.01 | 98 | 1015.3 |
| 20260902100113 | 76 | 0 | 0.0 | 1.0 | 0.00 | 0.56 | 0.01 | 98 | 1015.4 |
| 20260902094607 | 76 | 0 | 0.0 | 1.0 | 0.00 | 0.56 | 0.01 | 98 | 1015.5 |
| 20260902093105 | 76 | 0 | 0.0 | 1.0 | 0.00 | 0.56 | 0.01 | 98 | 1015.4 |
| 20260902091623 | 76 | 0 | 0.0 | 2.0 | 0.00 | 0.56 | 0.01 | 98 | 1015.3 |
| 20260902090109 | 76 | 0 | 0.0 | 1.0 | 0.00 | 0.56 | 0.01 | 97 | 1015.1 |
| 20260902084624 | 76 | 0 | 0.0 | 1.0 | 0.00 | 0.57 | 0.01 | 97 | 1015.0 |
| 20260902083105 | 76 | 0 | 0.0 | 1.0 | 0.00 | 0.57 | 0.01 | 97 | 1015.0 |
| 20260902081608 | 76 | 327 | 0.0 | 1.0 | 0.00 | 0.57 | 0.01 | 97 | 1015.0 |
| 20260902080107 | 76 | 0 | 0.0 | 1.0 | 0.00 | 0.57 | 0.01 | 97 | 1015.1 |
| 20260902074606 | 76 | 0 | 0.0 | 3.0 | 0.00 | 0.57 | 0.01 | 97 | 1015.0 |
| 20260902073102 | 76 | 0 | 0.0 | 2.0 | 0.00 | 0.57 | 0.01 | 97 | 1015.2 |
| 20260902071617 | 76 | 0 | 0.0 | 1.0 | 0.00 | 0.57 | 0.01 | 96 | 1015.1 |
| 20260902070112 | 77 | 0 | 0.0 | 2.0 | 0.00 | 0.57 | 0.01 | 96 | 1015.4 |
| 20260902064610 | 77 | 0 | 0.0 | 2.0 | 0.00 | 0.57 | 0.01 | 96 | 1015.4 |
| 20260902063117 | 77 | 0 | 0.0 | 1.0 | 0.00 | 0.57 | 0.01 | 96 | 1015.5 |
| 20260902060109 | 77 | 0 | 0.0 | 1.0 | 0.00 | 0.57 | 0.01 | 96 | 1015.9 |
| 20260902054604 | 77 | 0 | 0.0 | 0.0 | 0.00 | 0.57 | 0.01 | 96 | 1015.7 |